Change the Weather History Date:

Tuesday, January 14, 2014

  Actual Average Record
Temperature  
Mean Temperature 25 °F 24 °F  
Max Temperature 31 °F 36 °F 62 °F (1995)
Min Temperature 19 °F 11 °F -24 °F (1979)
Degree Days  
Heating Degree Days 40 41  
Month to date heating degree days 568 583  
Since 1 July heating degree days 3788 3766  
Cooling Degree Days 0 0  
Month to date cooling degree days 0 0  
Year to date cooling degree days 0 0  
Moisture  
Dew Point 22 °F    
Average Humidity 80    
Maximum Humidity 92    
Minimum Humidity 68    
Precipitation  
Precipitation T in 0.02 in 0.43 in (1953)
Month to date precipitation 0.42 0.23  
Year to date precipitation 0.42 0.23  
Sea Level Pressure  
Sea Level Pressure 30.36 in    
Wind  
Wind Speed 15 mph (West)    
Max Wind Speed 32 mph    
Max Gust Speed 39 mph    
Visibility 5 miles    
Events Snow    
T = Trace of Precipitation, MM = Missing Value Source: NWS Daily Summary

Daily Weather History Graph

Daily Weather History Graph

Search for Another Location

Airport or City:

Trip Planner

Search our weather history database for the weather conditions in past years. The results will help you decide how hot, cold, wet, or windy it might be!

Date:

Astronomy

Jan. 14, 2014 Rise Set
Actual Time 7:42 AM MST 4:52 PM MST
Civil Twilight 7:09 AM MST 5:24 PM MST
Nautical Twilight 6:33 AM MST 6:01 PM MST
Astronomical Twilight 5:58 AM MST 6:36 PM MST
Moon 4:01 PM MST (1/14) 6:17 AM MST (1/14)
Length of Visible Light 10h 15m
Length of Day
9h 09m
Waxing Gibbous, 98% of the Moon is Illuminated
Jan 14
Waxing Gibbous
Jan 15
Full
Jan 23
Last Quarter
Jan 30
New
Feb 6
First Quarter

Hourly Weather History & Observations

Time (MST) Temp. Windchill Dew Point Humidity Pressure Visibility Wind Dir Wind Speed Gust Speed Precip Events Conditions
12:23 AM 28.0 °F 12.5 °F 25.0 °F 88% 30.18 in 2.0 mi WNW 28.8 mph - 0.00 in Snow Light Snow
12:36 AM 28.0 °F 13.3 °F 25.0 °F 88% 30.18 in 1.2 mi WNW 25.3 mph 36.8 mph 0.00 in Snow Light Snow
12:43 AM 28.0 °F 13.9 °F 25.0 °F 88% 30.18 in 1.2 mi WNW 23.0 mph - 0.00 in Snow Light Snow
12:53 AM 28.0 °F 13.9 °F 25.0 °F 88% 30.24 in 1.8 mi WNW 23.0 mph - 0.00 in Snow Light Snow
1:23 AM 27.0 °F 10.8 °F 25.0 °F 92% 30.19 in 0.8 mi WNW 29.9 mph 35.7 mph 0.00 in Snow Light Snow
1:30 AM 27.0 °F 11.0 °F 24.1 °F 89% 30.20 in 1.0 mi WNW 28.8 mph - 0.00 in Snow Light Snow
1:53 AM 27.0 °F 11.9 °F 24.1 °F 89% 30.27 in 1.0 mi WNW 25.3 mph - 0.00 in Snow Light Snow
2:15 AM 27.0 °F 12.5 °F 24.1 °F 89% 30.21 in 2.0 mi West 23.0 mph - 0.00 in Snow Light Snow
2:53 AM 28.0 °F 12.0 °F 23.0 °F 81% 30.32 in 2.0 mi WNW 31.1 mph 39.1 mph 0.00 in Snow Light Snow
3:02 AM 27.0 °F 10.8 °F 24.1 °F 89% 30.26 in 1.0 mi WNW 29.9 mph 39.1 mph 0.00 in Snow Light Snow
3:07 AM 27.0 °F 11.3 °F 24.1 °F 89% 30.26 in 0.8 mi WNW 27.6 mph - 0.00 in Snow Light Snow
3:25 AM 27.0 °F 10.8 °F 24.1 °F 89% 30.26 in 0.8 mi WNW 29.9 mph - 0.00 in Snow Light Snow
3:35 AM 27.0 °F 11.3 °F 23.0 °F 85% 30.25 in 1.2 mi WNW 27.6 mph - 0.00 in Snow Light Snow
3:43 AM 27.0 °F 11.3 °F 23.0 °F 85% 30.26 in 3.0 mi WNW 27.6 mph 33.4 mph 0.00 in Snow Light Snow
3:53 AM 28.0 °F 13.6 °F 21.9 °F 78% 30.34 in 6.0 mi WNW 24.2 mph - 0.00 in Snow Light Snow
4:14 AM 28.0 °F 13.3 °F 21.9 °F 78% 30.28 in 1.8 mi WNW 25.3 mph - 0.00 in Snow Light Snow
4:53 AM 27.0 °F 11.9 °F 23.0 °F 85% 30.38 in 1.2 mi WNW 25.3 mph 33.4 mph 0.00 in Snow Light Snow
5:53 AM 27.0 °F 13.2 °F 21.9 °F 81% 30.40 in 3.0 mi WNW 20.7 mph - 0.00 in Snow Light Snow
6:53 AM 28.0 °F 13.6 °F 19.9 °F 72% 30.44 in 6.0 mi WNW 24.2 mph 31.1 mph 0.00 in Snow Light Snow
7:53 AM 28.0 °F 14.3 °F 19.0 °F 69% 30.47 in 8.0 mi WNW 21.9 mph - 0.00 in Snow Light Snow
8:53 AM 28.0 °F 13.6 °F 19.9 °F 72% 30.49 in 10.0 mi West 24.2 mph 32.2 mph 0.00 in   Overcast
9:24 AM 28.0 °F 12.5 °F 21.0 °F 75% 30.38 in 1.8 mi West 28.8 mph 36.8 mph 0.00 in Snow Light Snow
9:33 AM 27.0 °F 12.5 °F 21.9 °F 81% 30.38 in 1.0 mi West 23.0 mph - 0.00 in Snow Light Snow
9:48 AM 28.4 °F 14.7 °F 21.2 °F 74% 30.39 in 3.0 mi West 21.9 mph - 0.00 in Snow Light Snow
9:53 AM 28.0 °F 14.3 °F 21.0 °F 75% 30.50 in 3.0 mi West 21.9 mph - 0.00 in Snow Light Snow
10:07 AM 28.0 °F 13.6 °F 21.0 °F 75% 30.39 in 9.0 mi WNW 24.2 mph - 0.00 in   Overcast
10:15 AM 28.0 °F 13.0 °F 21.0 °F 75% 30.39 in 2.0 mi WNW 26.5 mph 33.4 mph 0.00 in Snow Light Snow
10:20 AM 28.0 °F 12.8 °F 21.9 °F 78% 30.39 in 0.8 mi WNW 27.6 mph 34.5 mph 0.00 in Snow Light Snow
10:27 AM 27.0 °F 12.5 °F 21.9 °F 81% 30.39 in 0.5 mi West 23.0 mph 35.7 mph 0.00 in Snow Snow
10:33 AM 27.0 °F 12.5 °F 21.9 °F 81% 30.39 in 1.0 mi West 23.0 mph - 0.00 in Snow Light Snow
10:39 AM 28.0 °F 15.3 °F 21.9 °F 78% 30.39 in 3.0 mi West 18.4 mph - 0.00 in Snow Light Snow
10:53 AM 28.9 °F 15.8 °F 21.0 °F 72% 30.52 in 9.0 mi West 20.7 mph - 0.00 in Snow Light Snow
11:53 AM 28.9 °F 14.8 °F 21.9 °F 75% 30.51 in 5.0 mi WNW 24.2 mph - 0.00 in Snow Light Snow
12:53 PM 28.9 °F 17.7 °F 23.0 °F 78% 30.49 in 9.0 mi NW 15.0 mph - 0.00 in Snow Light Snow
1:53 PM 30.0 °F 21.1 °F 21.9 °F 72% 30.48 in 10.0 mi NW 10.4 mph - 0.00 in   Overcast
2:53 PM 30.9 °F 26.2 °F 21.0 °F 67% 30.46 in 10.0 mi WNW 4.6 mph - N/A   Overcast
3:53 PM 28.0 °F 22.8 °F 21.0 °F 75% 30.45 in 10.0 mi SSW 4.6 mph - N/A   Overcast
4:53 PM 26.1 °F 20.5 °F 21.0 °F 81% 30.44 in 10.0 mi South 4.6 mph - N/A   Partly Cloudy
5:53 PM 25.0 °F 17.1 °F 18.0 °F 75% 30.41 in 10.0 mi SW 6.9 mph - N/A   Clear
6:53 PM 21.0 °F 14.6 °F 15.1 °F 78% 30.41 in 10.0 mi SSW 4.6 mph - N/A   Clear
7:53 PM 21.0 °F 13.4 °F 16.0 °F 81% 30.39 in 10.0 mi SSW 5.8 mph - N/A   Clear
8:53 PM 23.0 °F 18.4 °F 16.0 °F 74% 30.36 in 10.0 mi SSE 3.5 mph - N/A   Scattered Clouds
9:53 PM 26.1 °F 20.5 °F 18.0 °F 71% 30.33 in 10.0 mi SSW 4.6 mph - N/A   Clear
10:53 PM 27.0 °F 21.6 °F 19.9 °F 75% 30.30 in 10.0 mi South 4.6 mph - N/A   Overcast
11:53 PM 19.9 °F 14.9 °F 15.1 °F 81% 30.29 in 10.0 mi SSW 3.5 mph - N/A   Clear